KC9VAF Weather Reports


Display with metric or nautical units.
time (UTC)temp
F
wind
direction
speed
MPH
gust
MPH
rain 1hr
in
rain 24hr
in
rain mn
in
humidity
%
barometer
mb
20260906222525 73 73 2.0 2.0 0.00 0.00 0.00 65 1021.0
20260906222023 73 74 1.0 2.0 0.00 0.00 0.00 65 1021.0
20260906221522 72 73 0.0 1.0 0.00 0.00 0.00 65 1020.9
20260906221018 73 72 1.0 2.0 0.00 0.00 0.00 64 1021.2
20260906220517 73 94 3.0 3.0 0.00 0.00 0.00 64 1021.0
20260906220013 74 67 2.0 2.0 0.00 0.00 0.00 63 1021.3
20260906215512 74 72 2.0 2.0 0.00 0.00 0.00 63 1021.3
20260906215010 74 68 2.0 3.0 0.00 0.00 0.00 63 1021.3
20260906214509 73 69 2.0 2.0 0.00 0.00 0.00 65 1021.4
20260906214004 74 59 4.0 5.0 0.00 0.00 0.00 64 1021.5
20260906213458 74 80 1.0 2.0 0.00 0.00 0.00 63 1021.3
20260906212956 74 114 3.0 3.0 0.00 0.00 0.00 64 1021.5
20260906212450 75 96 1.0 2.0 0.00 0.00 0.00 64 1021.5
20260906211946 74 68 2.0 2.0 0.00 0.00 0.00 61 1021.6
20260906211440 75 88 3.0 3.0 0.00 0.00 0.00 64 1021.6
20260906210935 75 104 3.0 6.0 0.00 0.00 0.00 64 1021.5
20260906210431 76 86 2.0 2.0 0.00 0.00 0.00 62 1021.4
20260906205925 75 67 1.0 2.0 0.00 0.00 0.00 64 1021.6
20260906205421 74 92 2.0 2.0 0.00 0.00 0.00 67 1021.7
20260906204917 75 141 4.0 5.0 0.00 0.00 0.00 64 1021.7
20260906204415 76 91 3.0 3.0 0.00 0.00 0.00 64 1021.5
20260906203914 75 63 1.0 1.0 0.00 0.00 0.00 65 1021.6
20260906203405 75 65 1.0 2.0 0.00 0.00 0.00 64 1021.7
20260906202902 75 75 2.0 3.0 0.00 0.00 0.00 66 1021.7
20260906202402 76 52 2.0 3.0 0.00 0.00 0.00 66 1021.6
20260906201902 76 95 2.0 2.0 0.00 0.00 0.00 66 1021.7
20260906201356 75 81 3.0 3.0 0.00 0.00 0.00 67 1021.6
20260906200852 75 90 1.0 1.0 0.00 0.00 0.00 67 1021.8
20260906200348 75 78 0.0 0.0 0.00 0.00 0.00 69 1021.5
20260906195842 74 33 3.0 3.0 0.00 0.00 0.00 67 1021.5
20260906195339 75 74 3.0 3.0 0.00 0.00 0.00 68 1021.8
20260906194834 75 77 1.0 1.0 0.00 0.00 0.00 67 1021.7
20260906194329 75 61 1.0 2.0 0.00 0.00 0.00 68 1021.9
20260906193819 75 98 2.0 2.0 0.00 0.00 0.00 68 1021.8
20260906193314 75 95 3.0 5.0 0.00 0.00 0.00 70 1021.9
20260906192809 76 107 4.0 6.0 0.00 0.00 0.00 68 1021.8
20260906192306 77 81 2.0 3.0 0.00 0.00 0.00 68 1021.9
20260906191803 74 99 0.0 1.0 0.00 0.00 0.00 71 1021.9
20260906191257 76 61 2.0 3.0 0.00 0.00 0.00 67 1021.8
20260906190752 76 78 0.0 0.0 0.00 0.00 0.00 70 1022.1
20260906190246 75 107 3.0 3.0 0.00 0.00 0.00 70 1021.8
20260906185745 74 83 2.0 2.0 0.00 0.00 0.00 70 1021.9
20260906185245 75 74 3.0 3.0 0.00 0.00 0.00 68 1021.7
20260906184740 74 71 3.0 3.0 0.00 0.00 0.00 69 1021.9
20260906184235 74 78 1.0 2.0 0.00 0.00 0.00 71 1021.8
20260906183730 75 97 1.0 2.0 0.00 0.00 0.00 71 1021.9
20260906183227 75 103 4.0 6.0 0.00 0.00 0.00 71 1021.9
20260906182726 75 94 2.0 2.0 0.00 0.00 0.00 70 1022.0
20260906182222 74 79 0.0 1.0 0.00 0.00 0.00 70 1021.9
20260906181717 75 78 3.0 3.0 0.00 0.00 0.00 69 1021.8
20260906181214 75 76 2.0 3.0 0.00 0.00 0.00 69 1021.7
20260906180714 75 95 1.0 2.0 0.00 0.00 0.00 69 1021.9
20260906180209 75 84 0.0 1.0 0.00 0.00 0.00 70 1022.0
20260906175706 75 100 2.0 2.0 0.00 0.00 0.00 68 1021.6
20260906175202 75 84 3.0 3.0 0.00 0.00 0.00 68 1021.7
20260906174700 75 73 3.0 3.0 0.00 0.00 0.00 68 1021.7
20260906174155 75 71 3.0 3.0 0.00 0.00 0.00 69 1022.0
20260906173650 75 70 3.0 3.0 0.00 0.00 0.00 68 1022.0
20260906173146 75 116 3.0 5.0 0.00 0.00 0.00 69 1021.8
20260906172645 75 46 1.0 1.0 0.00 0.00 0.00 72 1022.1
20260906172141 75 57 2.0 2.0 0.00 0.00 0.00 71 1022.0
20260906171640 75 80 3.0 5.0 0.00 0.00 0.00 70 1022.0
20260906171136 75 64 3.0 5.0 0.00 0.00 0.00 69 1022.1
20260906170632 76 64 2.0 3.0 0.00 0.00 0.00 69 1022.2
20260906170131 75 125 1.0 2.0 0.00 0.00 0.00 72 1022.2
20260906165628 75 78 3.0 3.0 0.00 0.00 0.00 70 1022.1
20260906165123 74 77 2.0 3.0 0.00 0.00 0.00 71 1022.0
20260906164621 76 119 4.0 6.0 0.00 0.00 0.00 67 1022.4
20260906164117 75 90 1.0 1.0 0.00 0.00 0.00 72 1022.3
20260906163613 75 79 1.0 5.0 0.00 0.00 0.00 74 1022.4
20260906163109 74 90 2.0 2.0 0.00 0.00 0.00 72 1022.5
20260906162606 74 101 3.0 3.0 0.00 0.00 0.00 72 1022.3
20260906162101 74 91 1.0 2.0 0.00 0.00 0.00 72 1022.3
20260906161556 75 103 2.0 5.0 0.00 0.00 0.00 73 1022.1
20260906161054 74 105 3.0 5.0 0.00 0.00 0.00 73 1022.2
20260906160553 74 77 1.0 1.0 0.00 0.00 0.00 73 1022.3
20260906160052 75 90 3.0 5.0 0.00 0.00 0.00 75 1022.1
20260906155550 75 83 2.0 3.0 0.00 0.00 0.00 73 1022.1
20260906155046 75 110 2.0 2.0 0.00 0.00 0.00 75 1022.1
20260906154541 74 109 1.0 1.0 0.00 0.00 0.00 76 1022.2
20260906154040 75 94 3.0 5.0 0.00 0.00 0.00 74 1022.1
20260906153539 75 80 1.0 2.0 0.00 0.00 0.00 74 1022.2
20260906153034 75 105 2.0 2.0 0.00 0.00 0.00 73 1022.2
20260906152533 75 83 2.0 2.0 0.00 0.00 0.00 73 1022.1
20260906152033 75 71 1.0 1.0 0.00 0.00 0.00 75 1022.0
20260906151529 74 76 1.0 2.0 0.00 0.00 0.00 77 1022.0
20260906151024 75 82 2.0 5.0 0.00 0.00 0.00 75 1021.9
20260906150519 74 99 1.0 2.0 0.00 0.00 0.00 76 1022.0
20260906150014 74 83 1.0 2.0 0.00 0.00 0.00 76 1022.1
20260906145513 74 73 2.0 2.0 0.00 0.00 0.00 76 1022.0
20260906145008 74 90 3.0 3.0 0.00 0.00 0.00 76 1022.0
20260906144503 74 109 1.0 2.0 0.00 0.00 0.00 77 1021.7
20260906143958 73 160 3.0 3.0 0.00 0.00 0.00 78 1021.8
20260906143453 73 93 2.0 2.0 0.00 0.00 0.00 78 1021.7
20260906142949 73 88 2.0 2.0 0.00 0.00 0.00 78 1021.8
20260906142449 73 159 2.0 3.0 0.00 0.00 0.00 78 1021.9
20260906141944 73 90 0.0 1.0 0.00 0.00 0.00 79 1021.8
20260906141437 72 82 1.0 1.0 0.00 0.00 0.00 79 1021.8
20260906140932 73 76 1.0 2.0 0.00 0.00 0.00 79 1021.8
20260906140427 72 170 3.0 3.0 0.00 0.00 0.00 79 1021.7
20260906135925 71 88 1.0 1.0 0.00 0.00 0.00 81 1021.9
20260906135424 71 91 2.0 2.0 0.00 0.00 0.00 80 1021.7
20260906134920 71 79 0.0 1.0 0.00 0.00 0.00 81 1021.9
20260906134415 71 82 0.0 1.0 0.00 0.00 0.00 82 1021.8
20260906133910 71 78 1.0 1.0 0.00 0.00 0.00 82 1021.7
20260906133406 71 78 2.0 2.0 0.00 0.00 0.00 82 1021.9
20260906132901 71 75 0.0 0.0 0.00 0.00 0.00 83 1021.7
20260906132356 70 79 0.0 0.0 0.00 0.00 0.00 84 1021.7
20260906131852 70 72 0.0 0.0 0.00 0.00 0.00 85 1021.6
20260906131347 70 95 1.0 1.0 0.00 0.00 0.00 85 1021.4
20260906130843 69 63 0.0 0.0 0.00 0.00 0.00 86 1021.6
20260906130342 69 147 3.0 3.0 0.00 0.00 0.00 85 1021.3
20260906125841 69 86 0.0 0.0 0.00 0.00 0.00 87 1021.0
20260906125338 68 88 0.0 0.0 0.00 0.00 0.00 87 1021.1
20260906124833 68 82 0.0 0.0 0.00 0.00 0.00 89 1021.2
20260906124330 67 67 1.0 2.0 0.00 0.00 0.00 92 1021.2
20260906123829 66 74 0.0 0.0 0.00 0.00 0.00 95 1021.1
20260906123324 66 78 0.0 0.0 0.00 0.00 0.00 96 1021.1
20260906122823 65 74 0.0 0.0 0.00 0.00 0.00 97 1021.1
20260906122318 65 74 0.0 0.0 0.00 0.00 0.00 97 1021.2
20260906121815 65 73 0.0 0.0 0.00 0.00 0.00 97 1021.0
20260906121311 65 70 0.0 0.0 0.00 0.00 0.00 97 1021.1
20260906120806 65 65 0.0 0.0 0.00 0.00 0.00 97 1020.9
20260906120257 65 69 0.0 0.0 0.00 0.00 0.00 97 1020.9
20260906115753 64 69 0.0 0.0 0.00 0.00 0.00 97 1020.7
20260906115242 64 69 0.0 0.0 0.00 0.00 0.00 97 1020.5
20260906114741 64 69 0.0 0.0 0.00 0.00 0.00 97 1020.7
20260906114237 64 69 0.0 0.0 0.00 0.00 0.00 97 1020.5
20260906113731 64 69 0.0 0.0 0.00 0.00 0.00 96 1020.6
20260906113230 64 72 0.0 0.0 0.00 0.00 0.00 96 1020.5
20260906112725 64 70 0.0 0.0 0.00 0.00 0.00 96 1020.3
20260906112222 64 74 0.0 0.0 0.00 0.00 0.00 96 1020.3
20260906111721 65 61 0.0 0.0 0.00 0.00 0.00 96 1020.5
20260906111216 65 68 0.0 0.0 0.00 0.00 0.00 96 1020.2
20260906110711 65 67 0.0 0.0 0.00 0.00 0.00 96 1020.0
20260906110206 65 74 0.0 0.0 0.00 0.00 0.00 96 1020.0
20260906105700 65 75 0.0 0.0 0.00 0.00 0.00 96 1020.1
20260906105156 65 65 0.0 0.0 0.00 0.00 0.00 96 1020.2
20260906104655 65 74 0.0 0.0 0.00 0.00 0.00 96 1020.0
20260906104149 65 75 0.0 0.0 0.00 0.00 0.00 96 1019.9
20260906103647 65 75 0.0 0.0 0.00 0.00 0.00 96 1020.2
20260906103142 65 73 0.0 0.0 0.00 0.00 0.00 96 1020.4
20260906102637 65 72 0.0 0.0 0.00 0.00 0.00 96 1020.2
20260906102131 65 76 0.0 0.0 0.00 0.00 0.00 96 1020.1
20260906101626 65 64 0.0 0.0 0.00 0.00 0.00 96 1020.1
20260906101126 65 73 0.0 0.0 0.00 0.00 0.00 96 1020.0
20260906100622 65 69 0.0 0.0 0.00 0.00 0.00 96 1020.3
20260906100122 65 68 0.0 0.0 0.00 0.00 0.00 96 1020.2
20260906095616 65 62 0.0 0.0 0.00 0.00 0.00 96 1020.0
20260906095112 65 62 0.0 0.0 0.00 0.00 0.00 96 1020.1
20260906094611 65 75 0.0 0.0 0.00 0.00 0.00 95 1020.0
20260906094107 65 67 0.0 0.0 0.00 0.00 0.00 95 1019.6
20260906093603 65 65 0.0 0.0 0.00 0.00 0.00 95 1019.7
20260906093057 65 70 0.0 0.0 0.00 0.00 0.00 95 1019.6
20260906092553 65 74 0.0 0.0 0.00 0.00 0.00 95 1019.6
20260906092047 65 42 0.0 1.0 0.00 0.00 0.00 94 1019.5
20260906091543 66 73 0.0 0.0 0.00 0.00 0.00 94 1019.7
20260906091040 66 58 0.0 0.0 0.00 0.00 0.00 94 1019.9
20260906090539 66 70 0.0 0.0 0.00 0.00 0.00 94 1019.9
20260906090034 66 71 0.0 0.0 0.00 0.00 0.00 94 1019.9
20260906085533 66 73 0.0 0.0 0.00 0.00 0.00 94 1020.0
20260906085033 66 64 1.0 1.0 0.00 0.00 0.00 95 1019.9
20260906084528 66 70 0.0 0.0 0.00 0.00 0.00 95 1019.9
20260906084026 66 72 0.0 0.0 0.00 0.00 0.00 95 1019.6
20260906083522 65 43 0.0 0.0 0.00 0.00 0.00 95 1019.9
20260906083022 65 39 1.0 1.0 0.00 0.00 0.00 95 1019.5
20260906082517 65 70 0.0 0.0 0.00 0.00 0.00 95 1019.6
20260906082013 65 61 0.0 0.0 0.00 0.00 0.00 95 1019.6
20260906081508 65 64 0.0 0.0 0.00 0.00 0.00 95 1019.6
20260906081004 65 72 0.0 0.0 0.00 0.00 0.00 95 1019.6
20260906080500 65 70 0.0 0.0 0.00 0.00 0.00 95 1019.6
20260906075955 66 70 0.0 0.0 0.00 0.00 0.00 94 1019.5
20260906075450 66 72 0.0 0.0 0.00 0.00 0.00 94 1019.4
20260906074945 66 72 0.0 0.0 0.00 0.00 0.00 94 1019.6
20260906074439 66 61 0.0 0.0 0.00 0.00 0.00 94 1019.4
20260906073937 66 34 2.0 2.0 0.00 0.00 0.00 94 1019.4
20260906073433 66 50 1.0 1.0 0.00 0.00 0.00 94 1019.6
20260906072929 66 44 0.0 0.0 0.00 0.00 0.00 94 1019.4
20260906072424 66 63 1.0 1.0 0.00 0.00 0.00 94 1019.2
20260906071920 66 70 0.0 0.0 0.00 0.00 0.00 94 1019.4
20260906071416 66 71 0.0 0.0 0.00 0.00 0.00 95 1019.4
20260906070912 66 66 1.0 1.0 0.00 0.00 0.00 95 1019.4
20260906070407 66 32 0.0 0.0 0.00 0.00 0.00 95 1019.2
20260906065902 66 55 1.0 1.0 0.00 0.00 0.00 95 1019.3
20260906065356 66 74 0.0 0.0 0.00 0.00 0.00 95 1019.4
20260906064852 66 60 1.0 2.0 0.00 0.00 0.00 96 1019.6
20260906064343 66 71 0.0 0.0 0.00 0.00 0.00 96 1019.5
20260906063842 66 74 0.0 0.0 0.00 0.00 0.00 96 1019.3
20260906063338 66 71 0.0 0.0 0.00 0.00 0.00 96 1019.6
20260906062833 66 73 0.0 0.0 0.00 0.00 0.00 96 1019.5
20260906062332 66 38 0.0 1.0 0.00 0.00 0.00 96 1019.5
20260906061828 66 59 0.0 1.0 0.00 0.00 0.00 96 1019.5
20260906061324 66 76 0.0 0.0 0.00 0.00 0.00 96 1019.4
20260906060819 66 74 0.0 0.0 0.00 0.00 0.00 96 1019.4
20260906060317 66 68 0.0 0.0 0.00 0.00 0.00 96 1019.5
20260906055812 66 62 0.0 1.0 0.00 0.00 0.00 96 1019.2
20260906055307 66 60 1.0 1.0 0.00 0.00 0.00 97 1019.1
20260906054802 66 63 1.0 1.0 0.00 0.00 0.00 97 1019.2
20260906054258 66 42 1.0 2.0 0.00 0.00 0.00 97 1019.4
20260906053754 66 53 0.0 0.0 0.00 0.00 0.00 97 1019.3
20260906053250 66 64 0.0 0.0 0.00 0.00 0.00 96 1019.2
20260906052744 66 73 0.0 0.0 0.00 0.00 0.00 96 1019.5
20260906052240 66 72 0.0 0.0 0.00 0.00 0.00 96 1019.2
20260906051738 66 74 0.0 0.0 0.00 0.00 0.00 96 1019.3
20260906051237 66 67 0.0 1.0 0.00 0.00 0.00 96 1019.1
20260906050732 66 73 0.0 0.0 0.00 0.00 0.00 96 1019.1
20260906050228 66 50 0.0 1.0 0.00 0.00 0.00 96 1019.0
20260906045726 66 54 1.0 1.0 0.00 0.00 0.00 96 1019.3
20260906045221 66 68 0.0 0.0 0.00 0.00 0.00 96 1019.1
20260906044717 67 71 0.0 0.0 0.00 0.00 0.00 96 1019.2
20260906044212 67 61 1.0 1.0 0.00 0.00 0.00 95 1019.1
20260906043708 67 70 1.0 2.0 0.00 0.00 0.00 95 1018.8
20260906043204 67 63 0.0 0.0 0.00 0.00 0.00 95 1018.7
20260906042703 67 70 0.0 0.0 0.00 0.00 0.00 95 1018.7
20260906042157 67 57 1.0 1.0 0.00 0.00 0.00 95 1018.7
20260906041653 67 84 1.0 2.0 0.00 0.00 0.00 95 1018.7
20260906041148 67 81 0.0 1.0 0.00 0.00 0.00 94 1018.8
20260906040643 67 32 2.0 2.0 0.00 0.00 0.00 94 1018.8
20260906040139 67 71 0.0 0.0 0.00 0.00 0.00 94 1018.7
20260906035633 67 50 1.0 1.0 0.00 0.00 0.00 94 1018.6
20260906035129 67 49 2.0 2.0 0.00 0.00 0.00 93 1018.7
20260906034624 67 83 1.0 1.0 0.00 0.00 0.00 93 1018.8
20260906034118 68 74 0.0 0.0 0.00 0.00 0.00 93 1018.7
20260906033614 68 54 1.0 1.0 0.00 0.00 0.00 93 1018.7
20260906033109 68 62 0.0 0.0 0.00 0.00 0.00 92 1018.9
20260906032606 68 61 1.0 1.0 0.00 0.00 0.00 93 1018.6
20260906032105 68 56 2.0 2.0 0.00 0.00 0.00 93 1018.8
20260906031601 68 24 3.0 3.0 0.00 0.00 0.00 92 1018.7
20260906031057 68 52 1.0 1.0 0.00 0.00 0.00 92 1018.7
20260906030555 68 14 2.0 3.0 0.00 0.00 0.00 92 1018.5
20260906030049 68 56 1.0 2.0 0.00 0.00 0.00 92 1018.7
20260906025544 68 38 3.0 3.0 0.00 0.00 0.00 92 1018.7
20260906025043 68 75 0.0 1.0 0.00 0.00 0.00 92 1018.6
20260906024538 68 54 3.0 5.0 0.00 0.00 0.00 92 1018.5
20260906024037 68 62 3.0 3.0 0.00 0.00 0.00 92 1018.7
20260906023534 68 57 4.0 6.0 0.00 0.00 0.00 92 1018.4
20260906023028 68 59 1.0 2.0 0.00 0.00 0.00 91 1018.5
20260906022524 68 58 2.0 3.0 0.00 0.00 0.00 91 1018.4
20260906022019 68 40 2.0 2.0 0.00 0.00 0.00 91 1018.5
20260906021515 68 63 1.0 1.0 0.00 0.00 0.00 91 1018.4
20260906021009 68 50 1.0 1.0 0.00 0.00 0.00 91 1018.3
20260906020508 68 53 3.0 3.0 0.00 0.00 0.00 91 1018.3
20260906020007 68 63 1.0 1.0 0.00 0.00 0.00 91 1018.6
20260906015501 69 52 2.0 3.0 0.00 0.00 0.00 90 1018.4
20260906015001 69 64 1.0 2.0 0.00 0.00 0.00 90 1018.3
20260906014456 69 69 1.0 1.0 0.00 0.00 0.00 90 1018.5
20260906013952 69 56 1.0 1.0 0.00 0.00 0.00 90 1018.7
20260906013447 69 38 1.0 1.0 0.00 0.00 0.00 89 1018.5
20260906012943 69 64 1.0 1.0 0.00 0.00 0.00 90 1018.5
20260906012437 69 7 1.0 2.0 0.00 0.00 0.00 90 1018.6
20260906011936 69 66 1.0 1.0 0.00 0.00 0.00 90 1018.5
20260906011432 69 43 2.0 2.0 0.00 0.00 0.00 89 1018.3
20260906010927 70 26 3.0 3.0 0.00 0.00 0.00 89 1018.5
20260906010422 70 76 0.0 0.0 0.00 0.00 0.00 89 1018.5
20260906005919 70 333 3.0 3.0 0.00 0.00 0.00 88 1018.6
20260906005418 70 77 1.0 2.0 0.00 0.00 0.00 87 1018.5
20260906004916 70 58 1.0 2.0 0.00 0.00 0.00 87 1018.3
20260906004411 70 41 3.0 3.0 0.00 0.00 0.00 87 1018.5
20260906003907 70 64 3.0 6.0 0.00 0.00 0.00 87 1018.4
20260906003402 70 73 2.0 3.0 0.00 0.00 0.00 88 1018.4
20260906002857 70 352 3.0 3.0 0.00 0.00 0.00 88 1018.4
20260906002356 70 37 1.0 1.0 0.00 0.00 0.00 88 1018.3
20260906001852 70 90 3.0 5.0 0.00 0.00 0.00 89 1018.2
20260906001348 70 62 2.0 2.0 0.00 0.00 0.00 89 1018.2
20260906000843 70 65 1.0 1.0 0.00 0.00 0.00 90 1018.2
20260906000342 70 61 3.0 5.0 0.00 0.00 0.00 91 1018.2
20260905235837 70 66 1.0 1.0 0.00 0.00 0.00 91 1018.3
20260905235332 70 9 4.0 6.0 0.00 0.00 0.00 91 1018.6
20260905234827 70 41 1.0 2.0 0.00 0.00 0.00 91 1018.3
20260905234322 70 69 0.0 1.0 0.00 0.00 0.00 91 1018.3
20260905233817 70 28 0.0 2.0 0.00 0.00 0.00 91 1018.3
20260905233312 70 25 2.0 3.0 0.00 0.00 0.00 92 1018.5
20260905232811 70 57 2.0 2.0 0.00 0.00 0.00 92 1018.3
20260905232308 70 59 3.0 3.0 0.00 0.00 0.00 92 1018.4
20260905231803 70 16 3.0 3.0 0.00 0.00 0.00 92 1018.4
20260905231258 70 53 1.0 1.0 0.00 0.00 0.00 92 1018.5
20260905230754 70 44 3.0 5.0 0.00 0.00 0.00 92 1018.5
20260905230252 70 42 1.0 1.0 0.00 0.00 0.00 92 1018.3
20260905225752 70 51 3.0 3.0 0.00 0.00 0.00 92 1018.3
20260905225247 71 70 2.0 3.0 0.00 0.00 0.00 92 1018.6
20260905224746 71 33 2.0 2.0 0.00 0.00 0.00 91 1018.5
20260905224242 71 349 3.0 5.0 0.00 0.00 0.00 90 1018.7
20260905223737 71 81 1.0 2.0 0.00 0.00 0.00 90 1018.6
20260905223234 71 79 3.0 5.0 0.00 0.00 0.00 90 1018.4